TimeCDT,TemperatureF,Dew PointF,Humidity,Sea Level PressureIn,VisibilityMPH,Wind Direction,Wind SpeedMPH,Gust SpeedMPH,PrecipitationIn,Events,Conditions,WindDirDegrees,DateUTC
12:53 AM,52.0,43.0,71,29.75,10.0,SW,6.9,-,N/A,,Overcast,230,2014-04-30 05:53:00
1:24 AM,52.0,43.0,71,29.75,10.0,SW,5.8,-,N/A,,Overcast,230,2014-04-30 06:24:00
1:53 AM,52.0,43.0,71,29.74,10.0,West,6.9,-,N/A,,Overcast,270,2014-04-30 06:53:00
2:53 AM,51.1,45.0,80,29.75,10.0,WSW,9.2,-,N/A,,Overcast,250,2014-04-30 07:53:00
3:53 AM,51.1,45.0,80,29.76,10.0,West,5.8,-,N/A,,Overcast,270,2014-04-30 08:53:00
4:53 AM,50.0,45.0,83,29.78,10.0,West,6.9,-,N/A,,Overcast,260,2014-04-30 09:53:00
5:21 AM,48.9,46.9,93,29.79,3.0,WNW,13.8,19.6,0.01,Rain,Light Rain,290,2014-04-30 10:21:00
5:30 AM,48.0,46.0,93,29.79,5.0,WNW,10.4,-,0.01,Rain,Light Rain,290,2014-04-30 10:30:00
5:43 AM,48.0,46.0,93,29.80,8.0,WNW,9.2,-,0.01,,Overcast,300,2014-04-30 10:43:00
5:53 AM,46.9,46.0,97,29.81,5.0,WNW,10.4,-,0.01,Rain,Light Rain,300,2014-04-30 10:53:00
6:04 AM,48.0,45.0,89,29.81,10.0,WNW,10.4,-,0.00,,Overcast,290,2014-04-30 11:04:00
6:13 AM,48.0,44.1,86,29.81,10.0,WNW,11.5,-,0.00,,Overcast,290,2014-04-30 11:13:00
6:53 AM,48.0,44.1,86,29.82,10.0,West,8.1,-,0.00,,Overcast,280,2014-04-30 11:53:00
7:53 AM,48.0,41.0,77,29.83,10.0,WNW,11.5,-,N/A,,Overcast,300,2014-04-30 12:53:00
8:53 AM,48.0,39.0,71,29.84,10.0,WNW,15.0,23.0,N/A,,Overcast,290,2014-04-30 13:53:00
9:03 AM,48.0,39.0,71,29.84,10.0,WNW,16.1,23.0,N/A,,Overcast,300,2014-04-30 14:03:00
9:15 AM,48.0,39.9,74,29.84,10.0,WNW,13.8,-,N/A,,Overcast,300,2014-04-30 14:15:00
10:53 AM,48.0,37.0,66,29.88,10.0,West,13.8,-,N/A,,Overcast,280,2014-04-30 15:53:00
11:53 AM,50.0,37.0,61,29.89,10.0,West,10.4,-,N/A,,Overcast,280,2014-04-30 16:53:00
12:53 PM,50.0,37.0,61,29.90,10.0,West,10.4,-,N/A,,Overcast,260,2014-04-30 17:53:00
1:53 PM,51.1,37.0,59,29.91,10.0,WSW,9.2,17.3,N/A,,Overcast,250,2014-04-30 18:53:00
2:53 PM,52.0,37.0,57,29.91,10.0,WSW,11.5,18.4,N/A,,Overcast,250,2014-04-30 19:53:00
3:53 PM,53.1,37.0,55,29.90,10.0,West,9.2,-,N/A,,Overcast,260,2014-04-30 20:53:00
4:53 PM,55.9,37.0,49,29.88,10.0,West,10.4,-,N/A,,Scattered Clouds,270,2014-04-30 21:53:00
5:53 PM,57.0,36.0,45,29.88,10.0,West,9.2,-,N/A,,Mostly Cloudy,260,2014-04-30 22:53:00
6:53 PM,55.0,36.0,49,29.89,10.0,West,12.7,-,N/A,,Overcast,260,2014-04-30 23:53:00
7:53 PM,53.1,37.9,57,29.91,10.0,West,13.8,19.6,N/A,,Overcast,270,2014-05-01 00:53:00
8:53 PM,52.0,39.0,61,29.93,10.0,WSW,8.1,-,0.00,,Overcast,240,2014-05-01 01:53:00
9:53 PM,51.1,37.9,61,29.94,10.0,WSW,9.2,-,N/A,,Overcast,240,2014-05-01 02:53:00
10:53 PM,50.0,37.9,63,29.94,10.0,SW,5.8,-,N/A,,Clear,230,2014-05-01 03:53:00
11:53 PM,48.0,37.9,68,29.93,10.0,SW,6.9,-,N/A,,Clear,220,2014-05-01 04:53:00